Location: Anjeux
(47.8815°N, 6.2076°E)
Time: 12:12:58
(UTC+00:00)

AO-27 - Pass Details

Date: 15 December 2021
Orbit: 784 x 798 km, 98.9° (Epoch: 24 January)

Event Time Altitude Azimuth Distance (km) Brightness Sun altitude
Rises 19:09:16 0° 201° (SSW) 3,290 11.1 -33.4°
Reaches altitude 10° 19:12:03 10° 215° (SW) 2,366 10.5 -33.9°
Maximum altitude 19:16:10 23° 267° (W) 1,632 9.8 -34.6°
Drops below altitude 10° 19:20:20 10° 320° (NW) 2,380 10.6 -35.3°
Sets 19:23:09 0° 334° (NNW) 3,315 11.2 -35.7°
